VK3HAG Weather Reports


time (UTC)temp
F
wind
direction
speed
knots
gust
knots
rain 1hr
in
rain 24hr
in
rain mn
in
humidity
%
barometer
mb
20260504050004 63 257 0.0 1.7 0.00 0.00 0.00 67 1007.9
20260504044504 63 303 0.0 0.9 0.00 0.00 0.00 67 1008.0
20260504043004 63 1 0.0 3.5 0.00 0.00 0.00 66 1008.0
20260504041504 65 284 0.0 3.5 0.00 0.00 0.00 66 1007.9
20260504040004 63 1 0.0 7.8 0.00 0.00 0.00 66 1007.9
20260504034504 64 321 0.0 0.9 0.00 0.01 0.00 65 1008.0
20260504033004 63 233 0.0 4.3 0.00 0.01 0.00 65 1008.2
20260504031504 63 355 0.0 7.0 0.00 0.01 0.00 66 1008.5
20260504030005 64 1 0.0 2.6 0.00 0.01 0.00 64 1008.4
20260504024504 64 1 0.0 0.9 0.00 0.01 0.00 66 1008.5
20260504023004 64 1 0.9 9.6 0.00 0.01 0.00 66 1008.7
20260504021504 63 353 0.9 9.6 0.00 0.01 0.00 67 1008.9
20260504020004 64 265 0.9 8.7 0.00 0.01 0.00 67 1009.1
20260504014504 63 270 1.7 10.4 0.00 0.01 0.00 69 1009.4
20260504013004 63 264 3.5 13.0 0.00 0.01 0.00 68 1009.5
20260504011505 63 269 1.7 12.2 0.00 0.02 0.00 70 1009.5
20260504010005 62 351 2.6 9.6 0.00 0.04 0.00 72 1009.5
20260504004504 62 1 0.9 9.6 0.00 0.11 0.00 73 1009.6
20260504003005 61 1 0.9 9.6 0.00 0.12 0.00 74 1009.6
20260504001504 61 1 0.9 7.8 0.00 0.16 0.00 74 1009.7
20260504000005 60 338 0.9 7.8 0.00 0.18 0.00 75 1009.6
20260503234505 60 266 0.9 11.3 0.00 0.23 0.00 76 1009.6
20260503233004 59 269 0.9 7.0 0.00 0.24 0.00 78 1009.8
20260503231504 58 349 0.9 8.7 0.00 0.24 0.00 79 1009.8
20260503230004 58 347 0.0 10.4 0.00 0.24 0.00 79 1010.1
20260503224505 58 332 0.9 7.0 0.00 0.24 0.00 80 1010.0
20260503223004 57 337 0.0 11.3 0.00 0.24 0.00 80 1009.9
20260503221504 56 266 0.0 8.7 0.00 0.24 0.00 80 1010.1
20260503220005 56 345 0.0 5.2 0.00 0.24 0.00 81 1009.8
20260503214505 56 351 0.0 4.3 0.00 0.24 0.00 81 1009.9
20260503213004 56 240 0.0 1.7 0.00 0.24 0.00 80 1009.9
20260503211504 55 337 0.0 2.6 0.00 0.24 0.00 79 1009.9
20260503210005 55 1 0.0 2.6 0.00 0.24 0.00 79 1009.9
20260503204504 55 275 0.0 1.7 0.00 0.24 0.00 79 1009.7
20260503203004 55 346 0.0 0.9 0.00 0.24 0.00 81 1009.7
20260503201504 55 1 0.0 0.9 0.00 0.24 0.00 81 1009.7
20260503200005 56 349 0.0 0.9 0.00 0.24 0.00 81 1009.5
20260503194505 55 292 0.0 1.7 0.00 0.24 0.00 83 1009.5
20260503193004 55 324 0.0 0.9 0.00 0.24 0.00 84 1009.7
20260503191504 55 273 0.0 3.5 0.00 0.24 0.00 84 1009.8
20260503190004 55 284 0.0 1.7 0.00 0.24 0.00 85 1010.0
20260503184505 55 351 0.0 4.3 0.00 0.24 0.00 85 1010.1
20260503183004 55 1 0.0 1.7 0.00 0.24 0.00 86 1010.1
20260503181505 55 356 0.0 1.7 0.00 0.24 0.00 86 1010.2
20260503180005 55 1 0.0 0.9 0.00 0.24 0.00 87 1010.3
20260503174504 54 251 0.0 0.9 0.00 0.24 0.00 88 1010.4
20260503173005 54 279 0.0 1.7 0.00 0.24 0.00 88 1010.6
20260503171504 54 0 0.0 0.0 0.00 0.24 0.00 88 1010.6
20260503081504 57 0 0.0 0.0 0.00 0.24 0.24 76 1009.9
20260503071504 62 0 0.0 0.0 0.00 0.24 0.24 68 1009.7